QPF
0.00 0.00 0.00 0.00 0.00 0.00 0.00 0.00 0.00 0.00 0.00 0.00 0.00 0.00 0.00 0.00 0.00 0.00 0.00 0.00 0.00 0.00 0.00 0.00 0.00 0.00 0.00 0.00 0.00 0.00 0.00 0.00 0.00 0.00 0.00 0.00 0.00 0.00 0.00 0.00 0.00 0.01 0.01 0.01 0.01 0.01 0.02 0.01 0.01
0.00 0.00 0.00 0.00 0.00 0.00 0.00 0.00 0.00 0.00 0.00 0.00 0.00 0.00 0.00 0.00 0.00 0.00 0.00 0.00 0.00 0.00 0.00 0.00 0.00 0.00 0.00 0.00 0.00 0.00 0.00 0.00 0.00 0.00 0.00 0.00 0.00 0.00 0.00 0.00 0.00 0.01 0.01 0.01 0.01 0.01 0.01 0.01 0.01
0.00 0.00 0.00 0.00 0.00 0.00 0.00 0.00 0.00 0.00 0.00 0.00 0.00 0.00 0.00 0.00 0.00 0.00 0.00 0.00 0.00 0.00 0.00 0.00 0.00 0.00 0.00 0.00 0.00 0.00 0.00 0.00 0.00 0.00 0.00 0.00 0.00 0.00 0.00 0.00 0.00 0.00 0.01 0.01 0.01 0.01 0.01 0.01 0.01
0.00 0.00 0.00 0.00 0.00 0.00 0.00 0.00 0.00 0.00 0.00 0.00 0.00 0.00 0.00 0.00 0.00 0.00 0.00 0.00 0.00 0.00 0.00 0.00 0.00 0.00 0.00 0.00 0.00 0.00 0.00 0.00 0.00 0.00 0.00 0.00 0.00 0.00 0.00 0.00 0.00 0.00 0.00 0.00 0.00 0.01 0.01 0.01 0.01
0.00 0.00 0.00 0.00 0.00 0.00 0.00 0.00 0.00 0.00 0.00 0.00 0.00 0.00 0.00 0.00 0.00 0.00 0.00 0.00 0.00 0.00 0.00 0.00 0.00 0.00 0.00 0.00 0.00 0.00 0.00 0.00 0.00 0.00 0.00 0.00 0.00 0.00 0.00 0.00 0.00 0.00 0.00 0.00 0.00 0.00 0.01 0.00 0.00
0.00 0.00 0.00 0.00 0.00 0.00 0.00 0.00 0.00 0.00 0.00 0.00 0.00 0.00 0.00 0.00 0.00 0.00 0.00 0.00 0.00 0.00 0.00 0.00 0.00 0.00 0.00 0.00 0.00 0.00 0.00 0.00 0.00 0.00 0.00 0.00 0.00 0.00 0.00 0.00 0.00 0.00 0.00 0.00 0.00 0.00 0.00 0.00 0.00
0.00 0.00 0.00 0.00 0.00 0.00 0.00 0.00 0.00 0.00 0.00 0.00 0.00 0.00 0.00 0.00 0.00 0.00 0.00 0.00 0.00 0.00 0.00 0.00 0.00 0.00 0.00 0.00 0.00 0.00 0.00 0.00 0.00 0.00 0.00 0.00 0.00 0.00 0.00 0.00 0.00 0.00 0.00 0.00 0.00 0.00 0.00 0.00 0.00
0.00 0.00 0.00 0.00 0.00 0.00 0.00 0.00 0.00 0.00 0.00 0.00 0.00 0.00 0.00 0.00 0.00 0.00 0.00 0.00 0.00 0.00 0.00 0.00 0.00 0.00 0.00 0.00 0.00 0.00 0.00 0.00 0.00 0.00 0.00 0.00 0.00 0.00 0.00 0.00 0.00 0.00 0.00 0.00 0.00 0.00 0.00 0.00 0.00
0.00 0.00 0.00 0.00 0.00 0.00 0.00 0.00 0.00 0.00 0.00 0.00 0.00 0.00 0.00 0.00 0.00 0.00 0.00 0.00 0.00 0.00 0.00 0.00 0.00 0.00 0.00 0.00 0.00 0.00 0.00 0.00 0.00 0.00 0.00 0.00 0.00 0.00 0.00 0.00 0.00 0.00 0.00 0.00 0.00 0.00 0.00 0.00 0.00
0.00 0.00 0.00 0.00 0.00 0.00 0.00 0.00 0.00 0.00 0.00 0.00 0.00 0.00 0.00 0.00 0.00 0.00 0.00 0.00 0.00 0.00 0.00 0.00 0.00 0.00 0.00 0.00 0.00 0.00 0.00 0.00 0.00 0.00 0.00 0.00 0.00 0.00 0.00 0.00 0.00 0.00 0.00 0.00 0.00 0.00 0.00 0.00 0.00
0.00 0.00 0.00 0.00 0.00 0.00 0.00 0.00 0.00 0.00 0.00 0.00 0.00 0.00 0.00 0.00 0.00 0.00 0.00 0.00 0.00 0.00 0.00 0.00 0.00 0.00 0.00 0.00 0.00 0.00 0.00 0.00 0.00 0.00 0.00 0.00 0.00 0.00 0.00 0.00 0.00 0.00 0.00 0.00 0.00 0.00 0.00 0.00 0.00
0.00 0.00 0.00 0.00 0.00 0.00 0.00 0.00 0.00 0.00 0.00 0.00 0.00 0.00 0.00 0.00 0.00 0.00 0.00 0.00 0.00 0.00 0.00 0.00 0.00 0.00 0.00 0.00 0.00 0.00 0.00 0.00 0.00 0.00 0.00 0.00 0.00 0.00 0.00 0.00 0.00 0.00 0.00 0.00 0.00 0.00 0.00 0.00 0.00
0.00 0.00 0.00 0.00 0.00 0.00 0.00 0.00 0.00 0.00 0.00 0.00 0.00 0.00 0.00 0.00 0.00 0.00 0.00 0.00 0.00 0.00 0.00 0.00 0.00 0.00 0.00 0.00 0.00 0.00 0.00 0.00 0.00 0.00 0.00 0.00 0.00 0.00 0.00 0.00 0.00 0.00 0.00 0.00 0.00 0.00 0.00 0.00 0.00
0.00 0.00 0.00 0.00 0.00 0.00 0.00 0.00 0.00 0.00 0.00 0.00 0.00 0.00 0.00 0.00 0.00 0.00 0.00 0.00 0.00 0.00 0.00 0.00 0.00 0.00 0.00 0.00 0.00 0.00 0.00 0.00 0.00 0.00 0.00 0.00 0.00 0.00 0.00 0.00 0.00 0.00 0.00 0.00 0.00 0.00 0.00 0.00 0.00
0.00 0.00 0.00 0.00 0.00 0.00 0.00 0.00 0.00 0.00 0.00 0.00 0.00 0.00 0.00 0.00 0.00 0.00 0.00 0.00 0.00 0.00 0.00 0.00 0.00 0.00 0.00 0.00 0.00 0.00 0.00 0.00 0.00 0.00 0.00 0.00 0.00 0.00 0.00 0.00 0.00 0.00 0.00 0.00 0.00 0.00 0.00 0.00 0.00
0.00 0.00 0.00 0.00 0.00 0.00 0.00 0.00 0.00 0.00 0.00 0.00 0.00 0.00 0.00 0.00 0.00 0.00 0.00 0.00 0.00 0.00 0.00 0.00 0.00 0.00 0.00 0.00 0.00 0.00 0.00 0.00 0.00 0.00 0.00 0.00 0.00 0.00 0.00 0.00 0.00 0.00 0.00 0.00 0.00 0.00 0.00 0.00 0.00
0.00 0.00 0.00 0.00 0.00 0.00 0.00 0.00 0.00 0.00 0.00 0.00 0.00 0.00 0.00 0.00 0.00 0.00 0.00 0.00 0.00 0.00 0.00 0.00 0.00 0.00 0.00 0.00 0.00 0.00 0.00 0.00 0.00 0.00 0.00 0.00 0.00 0.00 0.00 0.00 0.00 0.00 0.00 0.00 0.00 0.00 0.00 0.00 0.00
0.00 0.00 0.00 0.00 0.00 0.00 0.00 0.00 0.00 0.00 0.00 0.00 0.00 0.00 0.00 0.00 0.00 0.00 0.00 0.00 0.00 0.00 0.00 0.00 0.00 0.00 0.00 0.00 0.00 0.00 0.00 0.00 0.00 0.00 0.00 0.00 0.00 0.00 0.00 0.00 0.00 0.00 0.00 0.00 0.00 0.00 0.00 0.00 0.00
0.00 0.00 0.00 0.00 0.00 0.00 0.00 0.00 0.00 0.00 0.00 0.00 0.00 0.00 0.00 0.00 0.00 0.00 0.00 0.00 0.00 0.00 0.00 0.00 0.00 0.00 0.00 0.00 0.00 0.00 0.00 0.00 0.00 0.00 0.00 0.00 0.00 0.00 0.00 0.00 0.00 0.00 0.00 0.00 0.00 0.00 0.00 0.00 0.00
0.00 0.00 0.00 0.00 0.00 0.00 0.00 0.00 0.00 0.00 0.00 0.00 0.00 0.00 0.00 0.00 0.00 0.00 0.00 0.00 0.00 0.00 0.00 0.00 0.00 0.00 0.00 0.00 0.00 0.00 0.00 0.00 0.00 0.00 0.00 0.00 0.00 0.00 0.00 0.00 0.00 0.00 0.00 0.00 0.00 0.00 0.00 0.00 0.00
0.00 0.00 0.00 0.00 0.00 0.00 0.00 0.00 0.00 0.00 0.00 0.00 0.00 0.00 0.00 0.00 0.00 0.00 0.00 0.00 0.00 0.00 0.00 0.00 0.00 0.00 0.00 0.00 0.00 0.00 0.00 0.00 0.00 0.00 0.00 0.00 0.00 0.00 0.00 0.00 0.00 0.00 0.00 0.00 0.00 0.00 0.00 0.00 0.00
0.00 0.00 0.00 0.00 0.00 0.00 0.00 0.00 0.00 0.00 0.00 0.00 0.00 0.00 0.00 0.00 0.00 0.00 0.00 0.00 0.00 0.00 0.00 0.00 0.00 0.00 0.00 0.00 0.00 0.00 0.00 0.00 0.00 0.00 0.00 0.00 0.00 0.00 0.00 0.00 0.00 0.00 0.00 0.00 0.00 0.00 0.00 0.00 0.00
0.00 0.00 0.00 0.00 0.00 0.00 0.00 0.00 0.00 0.00 0.00 0.00 0.00 0.00 0.00 0.00 0.00 0.00 0.00 0.00 0.00 0.00 0.00 0.00 0.00 0.00 0.00 0.00 0.00 0.00 0.00 0.00 0.00 0.00 0.00 0.00 0.00 0.00 0.00 0.00 0.00 0.00 0.00 0.00 0.00 0.00 0.00 0.00 0.00
0.00 0.00 0.00 0.00 0.00 0.00 0.00 0.00 0.00 0.00 0.00 0.00 0.00 0.00 0.00 0.00 0.00 0.00 0.00 0.00 0.00 0.00 0.00 0.00 0.00 0.00 0.00 0.00 0.00 0.00 0.00 0.00 0.00 0.00 0.00 0.00 0.00 0.00 0.00 0.00 0.00 0.00 0.00 0.00 0.00 0.00 0.00 0.00 0.00
0.00 0.00 0.00 0.00 0.00 0.00 0.00 0.00 0.00 0.00 0.00 0.00 0.00 0.00 0.00 0.00 0.00 0.00 0.00 0.00 0.00 0.00 0.00 0.00 0.00 0.00 0.00 0.00 0.00 0.00 0.00 0.00 0.00 0.00 0.00 0.00 0.00 0.00 0.00 0.00 0.00 0.00 0.00 0.00 0.00 0.00 0.00 0.00 0.00
0.00 0.00 0.00 0.00 0.00 0.00 0.00 0.00 0.00 0.00 0.00 0.00 0.00 0.00 0.00 0.00 0.00 0.00 0.00 0.00 0.00 0.00 0.00 0.00 0.00 0.00 0.00 0.00 0.00 0.00 0.00 0.00 0.00 0.00 0.00 0.00 0.00 0.00 0.00 0.00 0.00 0.00 0.00 0.00 0.00 0.00 0.00 0.00 0.00
0.00 0.00 0.00 0.00 0.00 0.00 0.00 0.00 0.00 0.00 0.00 0.00 0.00 0.00 0.00 0.00 0.00 0.00 0.00 0.00 0.00 0.00 0.00 0.00 0.00 0.00 0.00 0.00 0.00 0.00 0.00 0.00 0.00 0.00 0.00 0.00 0.00 0.00 0.00 0.00 0.00 0.00 0.00 0.00 0.00 0.00 0.00 0.00 0.00
0.00 0.00 0.00 0.00 0.00 0.00 0.00 0.00 0.00 0.00 0.00 0.00 0.00 0.00 0.00 0.00 0.00 0.00 0.00 0.00 0.00 0.00 0.00 0.00 0.00 0.00 0.00 0.00 0.00 0.00 0.00 0.00 0.00 0.00 0.00 0.00 0.00 0.00 0.00 0.00 0.00 0.00 0.00 0.00 0.00 0.00 0.00 0.00 0.00
0.00 0.00 0.00 0.00 0.00 0.00 0.00 0.00 0.00 0.00 0.00 0.00 0.00 0.00 0.00 0.00 0.00 0.00 0.00 0.00 0.00 0.00 0.00 0.00 0.00 0.00 0.00 0.00 0.00 0.00 0.00 0.00 0.00 0.00 0.00 0.00 0.00 0.00 0.00 0.00 0.00 0.00 0.00 0.00 0.00 0.00 0.00 0.00 0.00
0.00 0.00 0.00 0.00 0.00 0.00 0.00 0.00 0.00 0.00 0.00 0.00 0.00 0.00 0.00 0.00 0.00 0.00 0.00 0.00 0.00 0.00 0.00 0.00 0.00 0.00 0.00 0.00 0.00 0.00 0.00 0.00 0.00 0.00 0.00 0.00 0.00 0.00 0.00 0.00 0.00 0.00 0.00 0.00 0.00 0.00 0.00 0.00 0.00
MSLP
1015.53 1016.29 1017.38 1018.70 1020.13 1021.56 1022.85 1023.91 1024.71 1025.24 1025.57 1025.79 1025.99 1026.23 1026.56 1026.97 1027.43 1027.88 1028.24 1028.46 1028.53 1028.47 1028.32 1028.15 1028.01 1027.96 1028.01 1028.15 1028.32 1028.47 1028.57 1028.56 1028.46 1028.29 1028.08 1027.90 1027.78 1027.74 1027.78 1027.85 1027.92 1027.95 1027.88 1027.73 1027.49 1027.20 1026.91 1026.67 1026.51
1016.00 1016.95 1018.18 1019.59 1021.04 1022.40 1023.56 1024.45 1025.05 1025.38 1025.54 1025.64 1025.76 1025.98 1026.33 1026.79 1027.30 1027.79 1028.18 1028.42 1028.50 1028.43 1028.28 1028.10 1027.98 1027.95 1028.04 1028.23 1028.47 1028.69 1028.86 1028.92 1028.88 1028.76 1028.60 1028.44 1028.32 1028.26 1028.27 1028.30 1028.33 1028.31 1028.22 1028.04 1027.80 1027.53 1027.27 1027.06 1026.94
1016.64 1017.72 1019.03 1020.45 1021.83 1023.06 1024.05 1024.74 1025.15 1025.33 1025.38 1025.41 1025.52 1025.77 1026.17 1026.68 1027.26 1027.79 1028.22 1028.48 1028.56 1028.49 1028.33 1028.16 1028.05 1028.05 1028.17 1028.39 1028.66 1028.93 1029.15 1029.28 1029.30 1029.23 1029.11 1028.97 1028.86 1028.78 1028.74 1028.71 1028.68 1028.59 1028.45 1028.25 1028.01 1027.76 1027.55 1027.40 1027.34
1017.41 1018.58 1019.89 1021.22 1022.47 1023.52 1024.30 1024.80 1025.04 1025.11 1025.11 1025.14 1025.29 1025.60 1026.07 1026.66 1027.29 1027.87 1028.32 1028.60 1028.70 1028.64 1028.51 1028.35 1028.25 1028.26 1028.39 1028.61 1028.90 1029.19 1029.43 1029.60 1029.67 1029.65 1029.58 1029.47 1029.36 1029.26 1029.18 1029.09 1028.97 1028.83 1028.64 1028.41 1028.18 1027.96 1027.81 1027.73 1027.75
1018.26 1019.44 1020.68 1021.88 1022.93 1023.76 1024.33 1024.65 1024.77 1024.77 1024.77 1024.85 1025.08 1025.48 1026.04 1026.70 1027.38 1027.99 1028.46 1028.76 1028.88 1028.86 1028.76 1028.63 1028.56 1028.57 1028.69 1028.89 1029.16 1029.43 1029.67 1029.86 1029.96 1030.00 1029.97 1029.91 1029.82 1029.72 1029.60 1029.45 1029.28 1029.07 1028.83 1028.59 1028.38 1028.21 1028.12 1028.13 1028.22
1019.09 1020.23 1021.35 1022.36 1023.19 1023.79 1024.16 1024.33 1024.37 1024.37 1024.41 1024.58 1024.91 1025.41 1026.05 1026.76 1027.47 1028.09 1028.58 1028.90 1029.06 1029.09 1029.04 1028.96 1028.91 1028.93 1029.03 1029.20 1029.42 1029.65 1029.87 1030.05 1030.19 1030.27 1030.30 1030.29 1030.24 1030.15 1030.02 1029.84 1029.62 1029.37 1029.11 1028.87 1028.68 1028.56 1028.54 1028.62 1028.77
1019.83 1020.88 1021.84 1022.65 1023.25 1023.63 1023.83 1023.90 1023.91 1023.93 1024.06 1024.33 1024.77 1025.36 1026.05 1026.79 1027.50 1028.12 1028.61 1028.95 1029.15 1029.24 1029.26 1029.25 1029.24 1029.28 1029.36 1029.49 1029.66 1029.84 1030.03 1030.20 1030.36 1030.49 1030.59 1030.64 1030.64 1030.58 1030.46 1030.27 1030.03 1029.76 1029.50 1029.27 1029.11 1029.04 1029.08 1029.21 1029.40
1020.43 1021.36 1022.14 1022.73 1023.12 1023.32 1023.39 1023.39 1023.40 1023.49 1023.72 1024.10 1024.63 1025.28 1026.00 1026.73 1027.42 1028.01 1028.49 1028.85 1029.10 1029.26 1029.36 1029.43 1029.49 1029.56 1029.64 1029.73 1029.85 1029.99 1030.14 1030.31 1030.49 1030.67 1030.83 1030.95 1031.02 1031.00 1030.91 1030.73 1030.50 1030.24 1029.98 1029.78 1029.65 1029.63 1029.71 1029.86 1030.06
1020.88 1021.67 1022.27 1022.66 1022.86 1022.91 1022.89 1022.86 1022.89 1023.06 1023.38 1023.86 1024.46 1025.14 1025.86 1026.55 1027.19 1027.74 1028.19 1028.56 1028.86 1029.09 1029.29 1029.45 1029.59 1029.70 1029.80 1029.89 1029.98 1030.09 1030.22 1030.39 1030.59 1030.82 1031.04 1031.22 1031.35 1031.39 1031.34 1031.19 1030.98 1030.74 1030.51 1030.34 1030.25 1030.26 1030.36 1030.51 1030.68
1021.19 1021.84 1022.26 1022.48 1022.53 1022.46 1022.37 1022.33 1022.41 1022.64 1023.04 1023.58 1024.22 1024.90 1025.59 1026.22 1026.79 1027.28 1027.71 1028.08 1028.42 1028.73 1029.02 1029.28 1029.51 1029.69 1029.83 1029.93 1030.02 1030.12 1030.25 1030.43 1030.65 1030.91 1031.18 1031.42 1031.60 1031.69 1031.68 1031.58 1031.41 1031.20 1031.02 1030.88 1030.82 1030.85 1030.95 1031.08 1031.19
1021.43 1021.93 1022.20 1022.28 1022.20 1022.05 1021.91 1021.87 1021.97 1022.25 1022.70 1023.26 1023.90 1024.56 1025.18 1025.75 1026.24 1026.67 1027.07 1027.44 1027.82 1028.20 1028.57 1028.93 1029.24 1029.50 1029.70 1029.84 1029.96 1030.07 1030.21 1030.40 1030.64 1030.92 1031.22 1031.50 1031.72 1031.85 1031.89 1031.83 1031.71 1031.55 1031.41 1031.32 1031.29 1031.32 1031.40 1031.49 1031.54
1021.63 1022.01 1022.16 1022.11 1021.94 1021.72 1021.55 1021.49 1021.60 1021.90 1022.34 1022.90 1023.50 1024.11 1024.66 1025.15 1025.57 1025.96 1026.32 1026.70 1027.10 1027.53 1027.98 1028.42 1028.82 1029.15 1029.42 1029.61 1029.77 1029.91 1030.07 1030.28 1030.53 1030.83 1031.13 1031.43 1031.67 1031.83 1031.90 1031.89 1031.83 1031.74 1031.65 1031.60 1031.60 1031.63 1031.68 1031.71 1031.67
1021.86 1022.13 1022.18 1022.04 1021.79 1021.52 1021.31 1021.23 1021.32 1021.58 1021.99 1022.49 1023.03 1023.57 1024.05 1024.47 1024.84 1025.18 1025.53 1025.90 1026.33 1026.80 1027.30 1027.80 1028.26 1028.67 1029.00 1029.26 1029.47 1029.65 1029.84 1030.05 1030.31 1030.59 1030.89 1031.18 1031.42 1031.60 1031.71 1031.76 1031.76 1031.74 1031.72 1031.72 1031.73 1031.76 1031.76 1031.72 1031.60
1022.13 1022.31 1022.28 1022.08 1021.77 1021.46 1021.21 1021.08 1021.10 1021.30 1021.63 1022.04 1022.51 1022.96 1023.38 1023.75 1024.08 1024.40 1024.74 1025.12 1025.56 1026.04 1026.57 1027.11 1027.62 1028.08 1028.47 1028.80 1029.06 1029.29 1029.50 1029.73 1029.97 1030.24 1030.51 1030.77 1031.00 1031.19 1031.34 1031.44 1031.51 1031.56 1031.61 1031.66 1031.69 1031.70 1031.66 1031.55 1031.35
1022.41 1022.52 1022.44 1022.19 1021.86 1021.50 1021.20 1021.00 1020.94 1021.03 1021.24 1021.56 1021.92 1022.30 1022.66 1023.00 1023.32 1023.64 1023.98 1024.36 1024.80 1025.29 1025.83 1026.38 1026.92 1027.42 1027.87 1028.25 1028.58 1028.85 1029.09 1029.32 1029.55 1029.78 1030.01 1030.24 1030.45 1030.65 1030.83 1030.99 1031.14 1031.28 1031.39 1031.48 1031.54 1031.52 1031.44 1031.26 1030.98
1022.65 1022.72 1022.60 1022.34 1021.99 1021.60 1021.24 1020.96 1020.78 1020.74 1020.82 1021.00 1021.26 1021.56 1021.88 1022.21 1022.53 1022.87 1023.23 1023.62 1024.05 1024.54 1025.07 1025.62 1026.18 1026.71 1027.21 1027.65 1028.03 1028.35 1028.63 1028.86 1029.07 1029.26 1029.45 1029.64 1029.84 1030.04 1030.26 1030.48 1030.71 1030.92 1031.10 1031.24 1031.30 1031.27 1031.13 1030.88 1030.54
1022.80 1022.84 1022.72 1022.46 1022.10 1021.69 1021.27 1020.89 1020.59 1020.40 1020.32 1020.36 1020.50 1020.73 1021.02 1021.34 1021.69 1022.05 1022.43 1022.84 1023.28 1023.75 1024.27 1024.81 1025.38 1025.94 1026.48 1026.99 1027.43 1027.81 1028.12 1028.36 1028.56 1028.72 1028.87 1029.03 1029.21 1029.43 1029.68 1029.96 1030.26 1030.54 1030.78 1030.95 1031.01 1030.96 1030.78 1030.49 1030.09
1022.81 1022.84 1022.74 1022.50 1022.16 1021.74 1021.26 1020.78 1020.33 1019.97 1019.72 1019.61 1019.63 1019.78 1020.03 1020.36 1020.73 1021.13 1021.55 1021.97 1022.41 1022.88 1023.38 1023.92 1024.50 1025.09 1025.69 1026.26 1026.77 1027.21 1027.57 1027.83 1028.02 1028.17 1028.29 1028.42 1028.60 1028.83 1029.11 1029.44 1029.80 1030.14 1030.43 1030.62 1030.69 1030.62 1030.42 1030.09 1029.66
1022.66 1022.71 1022.65 1022.47 1022.16 1021.72 1021.19 1020.59 1019.99 1019.45 1019.01 1018.73 1018.62 1018.68 1018.90 1019.23 1019.63 1020.07 1020.52 1020.97 1021.42 1021.88 1022.38 1022.92 1023.51 1024.14 1024.79 1025.43 1026.02 1026.53 1026.94 1027.24 1027.44 1027.58 1027.69 1027.82 1027.99 1028.24 1028.55 1028.93 1029.33 1029.71 1030.03 1030.24 1030.31 1030.24 1030.02 1029.68 1029.26
1022.38 1022.48 1022.50 1022.38 1022.11 1021.67 1021.07 1020.36 1019.59 1018.84 1018.21 1017.75 1017.50 1017.46 1017.63 1017.95 1018.38 1018.86 1019.35 1019.82 1020.28 1020.75 1021.24 1021.79 1022.40 1023.07 1023.78 1024.48 1025.15 1025.73 1026.20 1026.55 1026.78 1026.93 1027.05 1027.18 1027.37 1027.63 1027.97 1028.38 1028.81 1029.22 1029.55 1029.77 1029.85 1029.78 1029.58 1029.26 1028.86
1022.05 1022.23 1022.34 1022.31 1022.08 1021.63 1020.96 1020.11 1019.16 1018.21 1017.36 1016.71 1016.30 1016.16 1016.27 1016.57 1017.01 1017.52 1018.04 1018.54 1019.02 1019.49 1019.99 1020.54 1021.17 1021.87 1022.62 1023.39 1024.12 1024.78 1025.31 1025.71 1025.99 1026.17 1026.32 1026.48 1026.68 1026.96 1027.33 1027.76 1028.20 1028.62 1028.96 1029.19 1029.28 1029.22 1029.05 1028.78 1028.45
1021.75 1022.05 1022.27 1022.32 1022.13 1021.66 1020.91 1019.91 1018.77 1017.60 1016.54 1015.68 1015.12 1014.86 1014.89 1015.17 1015.62 1016.14 1016.69 1017.21 1017.70 1018.17 1018.67 1019.22 1019.85 1020.57 1021.35 1022.16 1022.94 1023.65 1024.24 1024.70 1025.03 1025.27 1025.46 1025.65 1025.90 1026.21 1026.60 1027.04 1027.48 1027.90 1028.24 1028.46 1028.56 1028.54 1028.41 1028.21 1027.97
1021.59 1022.01 1022.34 1022.47 1022.31 1021.80 1020.94 1019.80 1018.46 1017.08 1015.80 1014.75 1014.02 1013.64 1013.61 1013.84 1014.28 1014.82 1015.37 1015.91 1016.40 1016.87 1017.35 1017.88 1018.50 1019.21 1020.00 1020.82 1021.63 1022.37 1023.01 1023.52 1023.91 1024.20 1024.46 1024.71 1025.00 1025.35 1025.76 1026.21 1026.66 1027.06 1027.39 1027.60 1027.71 1027.72 1027.65 1027.54 1027.39
1021.60 1022.14 1022.56 1022.75 1022.60 1022.04 1021.08 1019.78 1018.26 1016.68 1015.20 1013.98 1013.10 1012.61 1012.49 1012.69 1013.10 1013.63 1014.19 1014.72 1015.21 1015.66 1016.12 1016.62 1017.20 1017.87 1018.62 1019.43 1020.23 1020.98 1021.64 1022.20 1022.64 1023.01 1023.33 1023.66 1024.01 1024.41 1024.85 1025.30 1025.75 1026.13 1026.44 1026.65 1026.76 1026.80 1026.79 1026.74 1026.69
1021.79 1022.42 1022.92 1023.13 1022.96 1022.33 1021.26 1019.82 1018.14 1016.39 1014.75 1013.38 1012.39 1011.80 1011.62 1011.76 1012.15 1012.66 1013.20 1013.72 1014.18 1014.60 1015.02 1015.46 1015.99 1016.60 1017.29 1018.04 1018.81 1019.55 1020.21 1020.80 1021.29 1021.72 1022.12 1022.52 1022.95 1023.40 1023.87 1024.34 1024.78 1025.15 1025.44 1025.63 1025.75 1025.81 1025.83 1025.85 1025.87
1022.09 1022.78 1023.30 1023.50 1023.28 1022.58 1021.41 1019.86 1018.05 1016.19 1014.44 1012.97 1011.89 1011.24 1011.00 1011.10 1011.44 1011.92 1012.44 1012.92 1013.34 1013.72 1014.08 1014.46 1014.91 1015.44 1016.06 1016.73 1017.44 1018.13 1018.78 1019.38 1019.91 1020.40 1020.88 1021.35 1021.85 1022.36 1022.87 1023.36 1023.80 1024.16 1024.42 1024.60 1024.71 1024.77 1024.82 1024.87 1024.93
1022.41 1023.10 1023.59 1023.75 1023.46 1022.68 1021.43 1019.80 1017.93 1016.01 1014.22 1012.71 1011.59 1010.89 1010.61 1010.66 1010.96 1011.39 1011.85 1012.28 1012.66 1012.98 1013.28 1013.59 1013.96 1014.41 1014.94 1015.53 1016.16 1016.79 1017.41 1018.00 1018.56 1019.10 1019.63 1020.18 1020.74 1021.31 1021.86 1022.37 1022.82 1023.17 1023.42 1023.59 1023.68 1023.74 1023.79 1023.84 1023.91
1022.62 1023.25 1023.67 1023.74 1023.37 1022.52 1021.22 1019.57 1017.70 1015.79 1014.02 1012.53 1011.41 1010.71 1010.39 1010.40 1010.64 1011.00 1011.39 1011.76 1012.07 1012.34 1012.57 1012.82 1013.12 1013.49 1013.93 1014.43 1014.98 1015.55 1016.13 1016.70 1017.26 1017.83 1018.41 1019.01 1019.63 1020.25 1020.85 1021.39 1021.84 1022.20 1022.44 1022.60 1022.68 1022.72 1022.75 1022.79 1022.83
1022.62 1023.14 1023.44 1023.39 1022.93 1022.03 1020.72 1019.09 1017.29 1015.47 1013.78 1012.37 1011.30 1010.61 1010.28 1010.23 1010.39 1010.67 1010.97 1011.26 1011.50 1011.70 1011.89 1012.09 1012.33 1012.63 1013.00 1013.43 1013.91 1014.41 1014.94 1015.47 1016.03 1016.60 1017.21 1017.85 1018.52 1019.18 1019.81 1020.38 1020.85 1021.22 1021.47 1021.62 1021.69 1021.72 1021.72 1021.73 1021.72
1022.38 1022.74 1022.87 1022.69 1022.13 1021.20 1019.91 1018.37 1016.69 1015.02 1013.48 1012.19 1011.20 1010.54 1010.19 1010.08 1010.15 1010.32 1010.52 1010.71 1010.87 1011.01 1011.15 1011.31 1011.52 1011.78 1012.11 1012.48 1012.89 1013.34 1013.81 1014.31 1014.84 1015.41 1016.03 1016.69 1017.38 1018.07 1018.74 1019.33 1019.83 1020.22 1020.48 1020.64 1020.71 1020.72 1020.70 1020.67 1020.61
Thickness
5737 5737 5737 5726 5702 5675 5671 5673 5671 5666 5666 5662 5659 5660 5659 5654 5650 5649 5635 5635 5634 5632 5631 5629 5627 5625 5623 5622 5621 5620 5620 5619 5619 5619 5619 5619 5619 5619 5619 5619 5620 5621 5621 5622 5623 5623 5624 5624 5625
5738 5738 5730 5712 5687 5670 5672 5676 5670 5672 5668 5659 5658 5657 5656 5652 5644 5637 5633 5633 5632 5630 5628 5626 5625 5622 5620 5619 5617 5616 5615 5614 5614 5613 5613 5612 5612 5612 5611 5612 5612 5613 5613 5614 5614 5614 5614 5615 5615
5739 5736 5716 5697 5683 5675 5682 5678 5673 5668 5663 5662 5657 5653 5654 5650 5641 5635 5635 5633 5630 5628 5626 5624 5622 5619 5617 5615 5613 5612 5611 5609 5608 5607 5605 5605 5605 5604 5603 5604 5604 5604 5604 5604 5605 5605 5605 5605 5605
5736 5723 5708 5691 5686 5681 5680 5679 5671 5665 5662 5661 5656 5652 5648 5648 5642 5638 5635 5631 5628 5625 5623 5621 5619 5616 5614 5611 5609 5607 5605 5604 5602 5600 5598 5597 5596 5595 5595 5595 5595 5594 5595 5594 5594 5594 5594 5594 5594
5730 5712 5695 5681 5683 5681 5678 5677 5671 5667 5664 5659 5655 5654 5649 5644 5641 5637 5633 5629 5626 5623 5621 5618 5616 5613 5610 5607 5605 5602 5600 5598 5596 5593 5591 5589 5588 5587 5586 5586 5585 5585 5584 5583 5583 5582 5581 5581 5581
5715 5704 5685 5680 5685 5682 5679 5676 5672 5670 5664 5657 5654 5653 5651 5641 5637 5634 5631 5627 5624 5621 5618 5616 5613 5610 5606 5604 5601 5598 5595 5592 5589 5586 5583 5581 5579 5578 5576 5576 5575 5574 5573 5572 5571 5569 5568 5566 5565
5710 5696 5688 5689 5680 5680 5681 5676 5672 5668 5663 5660 5656 5655 5649 5638 5635 5632 5628 5624 5621 5618 5615 5612 5609 5606 5602 5599 5596 5593 5590 5586 5583 5580 5576 5573 5570 5568 5567 5565 5565 5563 5561 5560 5558 5556 5554 5551 5550
5712 5694 5682 5677 5676 5681 5683 5677 5677 5670 5668 5662 5657 5658 5654 5642 5634 5628 5624 5620 5617 5615 5612 5609 5605 5602 5599 5595 5592 5588 5585 5581 5577 5573 5569 5565 5562 5559 5557 5555 5554 5552 5549 5547 5545 5543 5539 5536 5533
5716 5692 5682 5682 5677 5685 5682 5676 5676 5672 5663 5658 5656 5658 5655 5644 5633 5625 5619 5616 5614 5612 5609 5606 5603 5599 5595 5591 5588 5584 5580 5575 5571 5567 5563 5559 5555 5552 5549 5546 5544 5541 5538 5535 5532 5529 5524 5520 5516
5706 5689 5692 5694 5687 5689 5680 5678 5673 5668 5664 5660 5657 5653 5646 5640 5633 5627 5622 5618 5614 5611 5608 5605 5601 5597 5593 5589 5584 5580 5576 5571 5567 5562 5558 5553 5549 5545 5540 5537 5533 5530 5526 5523 5519 5514 5510 5505 5501
5703 5696 5696 5694 5692 5689 5680 5677 5672 5669 5666 5668 5665 5657 5643 5638 5633 5631 5627 5623 5618 5613 5608 5604 5600 5596 5591 5587 5582 5577 5572 5567 5562 5557 5553 5548 5543 5538 5533 5529 5525 5520 5516 5511 5506 5501 5496 5491 5486
5696 5691 5691 5690 5690 5685 5681 5678 5671 5671 5680 5681 5674 5662 5648 5643 5639 5637 5633 5626 5619 5613 5610 5605 5600 5595 5590 5585 5580 5575 5570 5564 5559 5553 5548 5543 5537 5532 5527 5522 5517 5512 5506 5501 5495 5489 5483 5478 5472
5692 5689 5689 5687 5687 5684 5681 5676 5676 5679 5682 5680 5671 5660 5653 5649 5646 5642 5636 5628 5621 5616 5611 5606 5600 5595 5589 5583 5578 5573 5568 5562 5556 5550 5544 5538 5532 5526 5520 5515 5509 5503 5497 5491 5485 5478 5472 5466 5460
5687 5685 5685 5685 5685 5683 5680 5679 5676 5688 5685 5675 5667 5660 5657 5654 5651 5642 5636 5630 5625 5620 5614 5608 5601 5595 5589 5583 5577 5572 5566 5560 5553 5547 5541 5534 5528 5521 5514 5508 5501 5495 5488 5482 5475 5468 5461 5454 5447
5685 5683 5684 5684 5683 5680 5678 5676 5681 5691 5678 5674 5667 5662 5658 5656 5652 5648 5644 5639 5632 5624 5617 5609 5603 5595 5589 5583 5576 5570 5564 5557 5551 5544 5537 5530 5523 5516 5509 5501 5494 5487 5480 5472 5465 5458 5450 5443 5436
5683 5678 5677 5683 5679 5676 5674 5676 5696 5690 5678 5676 5668 5660 5657 5656 5654 5652 5647 5641 5634 5626 5619 5612 5605 5596 5589 5582 5576 5569 5562 5555 5548 5541 5533 5526 5518 5510 5502 5494 5486 5479 5471 5463 5455 5447 5439 5431 5423
5673 5668 5673 5677 5675 5670 5667 5674 5692 5682 5677 5677 5672 5664 5660 5658 5656 5654 5650 5644 5637 5630 5622 5613 5606 5599 5590 5582 5574 5567 5559 5552 5545 5537 5530 5522 5513 5505 5496 5488 5479 5470 5462 5453 5444 5437 5427 5419 5412
5674 5670 5668 5668 5674 5664 5660 5672 5692 5682 5674 5676 5676 5670 5664 5665 5669 5663 5654 5647 5640 5632 5624 5616 5607 5600 5590 5580 5571 5563 5555 5549 5542 5534 5526 5518 5509 5500 5490 5481 5472 5462 5452 5443 5434 5424 5415 5406 5398
5676 5670 5663 5666 5672 5661 5662 5676 5696 5696 5678 5679 5680 5675 5674 5677 5677 5666 5658 5649 5640 5632 5625 5617 5608 5600 5589 5578 5569 5559 5553 5546 5539 5531 5523 5514 5504 5494 5484 5474 5464 5454 5444 5434 5424 5413 5403 5393 5384
5669 5663 5660 5665 5666 5659 5661 5676 5697 5699 5695 5695 5693 5689 5685 5681 5675 5667 5660 5653 5645 5637 5629 5620 5612 5603 5593 5584 5574 5563 5554 5545 5537 5529 5519 5510 5500 5490 5478 5468 5457 5446 5435 5424 5413 5401 5389 5379 5367
5666 5659 5660 5661 5664 5659 5655 5677 5694 5704 5697 5694 5689 5690 5688 5686 5683 5674 5664 5657 5649 5642 5635 5628 5617 5606 5596 5584 5571 5560 5549 5541 5532 5524 5516 5507 5496 5485 5473 5462 5451 5439 5427 5415 5403 5391 5377 5365 5352
5656 5664 5661 5659 5650 5644 5651 5652 5692 5697 5697 5700 5697 5689 5689 5688 5685 5679 5670 5661 5656 5651 5641 5630 5620 5608 5597 5584 5573 5562 5554 5544 5536 5526 5515 5503 5492 5480 5468 5456 5444 5432 5420 5407 5394 5382 5367 5353 5339
5661 5663 5657 5651 5644 5637 5640 5638 5680 5687 5695 5706 5708 5701 5698 5694 5687 5683 5678 5672 5663 5653 5642 5631 5620 5609 5598 5586 5576 5564 5556 5546 5532 5520 5509 5497 5486 5475 5463 5451 5438 5425 5413 5400 5386 5372 5357 5342 5328
5660 5653 5642 5630 5627 5628 5639 5628 5661 5682 5695 5705 5710 5707 5702 5697 5688 5684 5678 5669 5661 5650 5640 5629 5619 5610 5598 5586 5575 5565 5556 5542 5527 5515 5503 5492 5481 5469 5458 5445 5433 5420 5406 5392 5379 5364 5349 5333 5318
5653 5638 5626 5629 5624 5629 5636 5629 5661 5694 5695 5695 5700 5702 5700 5694 5686 5680 5673 5666 5659 5649 5640 5629 5619 5609 5598 5586 5575 5566 5555 5542 5529 5516 5503 5489 5476 5465 5453 5440 5427 5413 5400 5386 5372 5357 5342 5326 5310
5643 5636 5622 5618 5616 5622 5631 5631 5673 5694 5692 5690 5688 5687 5687 5688 5683 5677 5673 5666 5658 5649 5638 5628 5618 5610 5597 5586 5576 5564 5552 5540 5528 5515 5503 5489 5477 5464 5450 5436 5422 5408 5394 5380 5365 5351 5336 5321 5305
5636 5628 5626 5611 5607 5602 5620 5637 5666 5692 5691 5688 5684 5681 5680 5681 5679 5675 5669 5661 5654 5646 5637 5628 5618 5607 5597 5586 5574 5562 5550 5538 5526 5513 5499 5486 5473 5459 5445 5431 5417 5403 5388 5374 5360 5345 5330 5315 5300
5637 5623 5608 5605 5599 5599 5613 5628 5650 5677 5686 5686 5681 5676 5675 5674 5672 5669 5664 5657 5650 5642 5633 5622 5613 5605 5595 5583 5572 5561 5549 5536 5523 5509 5496 5483 5469 5455 5441 5426 5412 5398 5384 5369 5355 5340 5326 5310 5296
5623 5618 5612 5598 5592 5590 5593 5631 5666 5668 5672 5669 5669 5666 5664 5664 5665 5663 5658 5652 5643 5634 5625 5617 5608 5599 5590 5580 5569 5558 5546 5532 5518 5506 5494 5480 5466 5451 5437 5422 5408 5393 5379 5365 5350 5336 5322 5307 5293
5622 5617 5606 5599 5598 5581 5574 5625 5672 5665 5662 5656 5655 5657 5657 5658 5658 5655 5650 5643 5635 5626 5618 5611 5603 5595 5588 5576 5565 5553 5542 5528 5515 5504 5491 5477 5463 5448 5434 5418 5404 5390 5376 5361 5347 5333 5319 5305 5291